CW8826 Weather Reports


Display with metric or nautical units.
time (UTC)temp
F
wind
direction
speed
MPH
gust
MPH
rain 1hr
in
rain 24hr
in
rain mn
in
humidity
%
barometer
mb
20260906140516 71 180 1.0 6.0 0.00 0.00 0.00 34 1018.0
20260906135515 72 203 2.0 5.0 0.00 0.00 0.00 33 1018.2
20260906134516 73 158 4.0 12.0 0.00 0.00 0.00 32 1018.1
20260906133516 73 203 4.0 13.0 0.00 0.00 0.00 32 1018.2
20260906132516 74 158 7.0 23.0 0.00 0.00 0.00 31 1018.2
20260906131637 73 135 6.0 14.0 0.00 0.00 0.00 31 1018.1
20260906130516 74 158 5.0 13.0 0.00 0.00 0.00 29 1018.2
20260906125516 74 158 6.0 19.0 0.00 0.00 0.00 29 1018.2
20260906124515 75 158 8.0 16.0 0.00 0.00 0.00 28 1018.2
20260906123516 75 135 9.0 18.0 0.00 0.00 0.00 28 1018.3
20260906122515 75 158 9.0 17.0 0.00 0.00 0.00 28 1018.3
20260906121516 75 203 6.0 11.0 0.00 0.00 0.00 28 1018.3
20260906120515 75 158 7.0 17.0 0.00 0.00 0.00 28 1018.3
20260906115516 75 203 7.0 18.0 0.00 0.00 0.00 27 1018.3
20260906114515 75 158 6.0 12.0 0.00 0.00 0.00 27 1018.2
20260906113515 75 203 6.0 14.0 0.00 0.00 0.00 27 1018.2
20260906112516 75 158 8.0 18.0 0.00 0.00 0.00 26 1018.2
20260906111516 75 135 8.0 16.0 0.00 0.00 0.00 26 1018.3
20260906110535 75 180 7.0 16.0 0.00 0.00 0.00 25 1018.3
20260906105535 75 158 5.0 12.0 0.00 0.00 0.00 25 1018.2
20260906104516 76 135 9.0 16.0 0.00 0.00 0.00 25 1018.2
20260906103516 76 158 7.0 14.0 0.00 0.00 0.00 24 1018.3
20260906102535 76 203 8.0 19.0 0.00 0.00 0.00 24 1018.2
20260906101515 76 158 9.0 15.0 0.00 0.00 0.00 23 1018.2
20260906100516 76 135 11.0 23.0 0.00 0.00 0.00 23 1018.0
20260906095535 76 203 10.0 19.0 0.00 0.00 0.00 22 1018.0
20260906094515 76 158 8.0 16.0 0.00 0.00 0.00 21 1017.9
20260906093516 76 158 8.0 18.0 0.00 0.00 0.00 21 1017.9
20260906092515 76 180 7.0 15.0 0.00 0.00 0.00 20 1018.0
20260906091516 76 158 8.0 18.0 0.00 0.00 0.00 20 1017.8
20260906090535 76 203 7.0 12.0 0.00 0.00 0.00 20 1017.6
20260906085516 76 158 6.0 14.0 0.00 0.00 0.00 20 1017.6
20260906084516 77 158 7.0 14.0 0.00 0.00 0.00 19 1017.8
20260906083515 77 135 9.0 15.0 0.00 0.00 0.00 20 1017.4
20260906082516 77 158 6.0 15.0 0.00 0.00 0.00 20 1017.4
20260906081516 77 135 7.0 14.0 0.00 0.00 0.00 19 1017.3
20260906080515 77 225 6.0 16.0 0.00 0.00 0.00 19 1017.4
20260906075516 77 225 6.0 12.0 0.00 0.00 0.00 19 1017.4
20260906074515 77 135 6.0 18.0 0.00 0.00 0.00 19 1017.4
20260906073516 78 225 6.0 14.0 0.00 0.00 0.00 19 1017.0
20260906072515 78 135 7.0 15.0 0.00 0.00 0.00 19 1017.2
20260906071515 78 158 7.0 15.0 0.00 0.00 0.00 19 1017.3
20260906070515 78 158 7.0 14.0 0.00 0.00 0.00 20 1017.0
20260906065535 78 203 7.0 19.0 0.00 0.00 0.00 20 1017.1
20260906064515 78 158 9.0 17.0 0.00 0.00 0.00 20 1017.1
20260906063515 78 158 9.0 19.0 0.00 0.00 0.00 19 1017.0
20260906062516 78 158 7.0 18.0 0.00 0.00 0.00 19 1016.8
20260906061516 78 135 9.0 22.0 0.00 0.00 0.00 19 1016.9
20260906060515 79 180 7.0 19.0 0.00 0.00 0.00 18 1016.8
20260906055516 79 225 6.0 13.0 0.00 0.00 0.00 18 1016.8
20260906054516 78 135 9.0 18.0 0.00 0.00 0.00 17 1016.7
20260906053516 78 158 6.0 20.0 0.00 0.00 0.00 18 1016.5
20260906052516 76 113 7.0 12.0 0.00 0.00 0.00 19 1016.0
20260906051517 76 135 6.0 13.0 0.00 0.00 0.00 19 1016.2
20260906050516 76 90 9.0 20.0 0.00 0.00 0.00 19 1016.1
20260906045516 77 113 8.0 17.0 0.00 0.00 0.00 19 1016.1
20260906044517 76 68 8.0 22.0 0.00 0.00 0.00 18 1016.0
20260906043516 76 90 7.0 13.0 0.00 0.00 0.00 18 1016.0
20260906042516 76 113 9.0 22.0 0.00 0.00 0.00 21 1016.0
20260906041536 76 113 8.0 20.0 0.00 0.00 0.00 19 1015.9
20260906040516 76 135 6.0 12.0 0.00 0.00 0.00 19 1015.6
20260906035516 77 90 8.0 16.0 0.00 0.00 0.00 19 1015.8
20260906034516 77 113 4.0 10.0 0.00 0.00 0.00 18 1015.6
20260906033536 77 113 4.0 10.0 0.00 0.00 0.00 19 1015.0
20260906032516 78 113 6.0 13.0 0.00 0.00 0.00 19 1015.2
20260906031516 77 158 5.0 16.0 0.00 0.00 0.00 20 1014.8
20260906030536 79 90 5.0 11.0 0.00 0.00 0.00 18 1014.7
20260906025516 78 135 6.0 14.0 0.00 0.00 0.00 19 1014.6
20260906024516 80 135 4.0 13.0 0.00 0.00 0.00 17 1014.6
20260906023517 80 135 2.0 6.0 0.00 0.00 0.00 17 1014.4
20260906022516 80 135 3.0 6.0 0.00 0.00 0.00 18 1014.3
20260906021516 80 225 1.0 6.0 0.00 0.00 0.00 18 1014.0
20260906020556 81 0.0 1.0 0.00 0.00 0.00 17 1014.2
20260906015516 82 0.0 2.0 0.00 0.00 0.00 17 1014.2
20260906014516 83 248 1.0 4.0 0.00 0.00 0.00 16 1014.6
20260906013516 84 0.0 1.0 0.00 0.00 0.00 16 1014.8
20260906012516 85 248 3.0 6.0 0.00 0.00 0.00 15 1014.8
20260906011516 86 225 2.0 5.0 0.00 0.00 0.00 14 1015.2
20260906010617 86 135 3.0 9.0 0.00 0.00 0.00 14 1015.2
20260906005516 86 225 3.0 6.0 0.00 0.00 0.00 14 1015.4
20260906004516 86 135 2.0 6.0 0.00 0.00 0.00 13 1015.2
20260906003536 86 225 2.0 6.0 0.00 0.00 0.00 13 1015.3
20260906002516 86 203 2.0 7.0 0.00 0.00 0.00 14 1015.4
20260906001516 86 248 4.0 9.0 0.00 0.00 0.00 13 1015.4
20260906000516 86 158 3.0 5.0 0.00 0.00 0.00 12 1015.4
20260905235516 87 225 3.0 6.0 0.00 0.00 0.00 12 1016.0
20260905234516 86 248 4.0 10.0 0.00 0.00 0.00 13 1015.6
20260905233516 85 248 4.0 9.0 0.00 0.00 0.00 13 1015.7
20260905232516 86 248 4.0 11.0 0.00 0.00 0.00 13 1015.7
20260905231516 86 225 5.0 11.0 0.00 0.00 0.00 13 1016.2
20260905230516 86 248 5.0 13.0 0.00 0.00 0.00 12 1016.2
20260905225517 85 203 6.0 14.0 0.00 0.00 0.00 13 1016.0
20260905224536 85 225 6.0 15.0 0.00 0.00 0.00 12 1016.0
20260905223516 86 225 5.0 13.0 0.00 0.00 0.00 13 1016.4
20260905222557 86 225 6.0 12.0 0.00 0.00 0.00 13 1016.5
20260905221516 85 203 5.0 12.0 0.00 0.00 0.00 14 1016.6
20260905220516 85 158 6.0 15.0 0.00 0.00 0.00 15 1016.7
20260905215516 84 225 6.0 12.0 0.00 0.00 0.00 15 1016.5
20260905214517 84 225 9.0 16.0 0.00 0.00 0.00 15 1016.8
20260905213516 84 203 7.0 19.0 0.00 0.00 0.00 14 1016.8
20260905212516 84 225 9.0 16.0 0.00 0.00 0.00 15 1017.0
20260905211536 84 225 6.0 16.0 0.00 0.00 0.00 15 1017.0
20260905210516 84 225 6.0 15.0 0.00 0.00 0.00 15 1017.2
20260905205516 84 225 6.0 15.0 0.00 0.00 0.00 15 1017.4
20260905204516 83 225 9.0 22.0 0.00 0.00 0.00 15 1017.3
20260905203536 83 225 7.0 15.0 0.00 0.00 0.00 17 1017.4
20260905202516 82 225 7.0 15.0 0.00 0.00 0.00 17 1017.5
20260905201516 82 248 5.0 16.0 0.00 0.00 0.00 18 1017.5
20260905200516 82 203 5.0 13.0 0.00 0.00 0.00 17 1017.6
20260905195536 82 225 5.0 15.0 0.00 0.00 0.00 17 1017.8
20260905194516 81 225 8.0 18.0 0.00 0.00 0.00 17 1017.5
20260905193516 81 225 7.0 15.0 0.00 0.00 0.00 18 1017.9
20260905192516 81 225 7.0 17.0 0.00 0.00 0.00 18 1017.6
20260905191516 80 225 10.0 21.0 0.00 0.00 0.00 19 1017.8
20260905190516 80 225 10.0 21.0 0.00 0.00 0.00 19 1017.8
20260905185517 79 225 7.0 23.0 0.00 0.00 0.00 19 1018.0
20260905184516 79 225 8.0 18.0 0.00 0.00 0.00 19 1018.1
20260905183516 79 225 8.0 15.0 0.00 0.00 0.00 19 1018.1
20260905182516 79 225 6.0 12.0 0.00 0.00 0.00 20 1018.4
20260905181516 79 248 6.0 14.0 0.00 0.00 0.00 20 1018.4
20260905180516 79 225 6.0 16.0 0.00 0.00 0.00 19 1018.5
20260905175516 78 225 6.0 15.0 0.00 0.00 0.00 19 1018.6
20260905174516 78 248 7.0 16.0 0.00 0.00 0.00 18 1018.6
20260905173556 78 225 7.0 14.0 0.00 0.00 0.00 19 1018.7
20260905172516 77 158 6.0 13.0 0.00 0.00 0.00 20 1018.6
20260905171516 77 248 6.0 15.0 0.00 0.00 0.00 20 1018.8
20260905170516 77 203 5.0 12.0 0.00 0.00 0.00 20 1018.6
20260905165516 77 225 5.0 14.0 0.00 0.00 0.00 20 1018.7
20260905164536 76 135 6.0 12.0 0.00 0.00 0.00 19 1018.7
20260905163516 76 158 6.0 11.0 0.00 0.00 0.00 20 1018.8
20260905162516 76 158 5.0 11.0 0.00 0.00 0.00 21 1018.9
20260905161536 76 248 5.0 13.0 0.00 0.00 0.00 20 1018.4
20260905160516 76 158 4.0 13.0 0.00 0.00 0.00 20 1018.8
20260905155536 75 225 4.0 9.0 0.00 0.00 0.00 20 1018.9
20260905154516 75 225 5.0 10.0 0.00 0.00 0.00 20 1018.9
20260905153516 75 158 4.0 9.0 0.00 0.00 0.00 20 1018.9
20260905152516 74 135 3.0 8.0 0.00 0.00 0.00 23 1018.6
20260905151516 73 225 3.0 10.0 0.00 0.00 0.00 25 1018.6
20260905150516 71 113 1.0 3.0 0.00 0.00 0.00 25 1018.3
20260905145516 70 90 1.0 5.0 0.00 0.00 0.00 28 1018.0
20260905144516 70 180 1.0 3.0 0.00 0.00 0.00 27 1017.9
20260905143517 71 135 3.0 9.0 0.00 0.00 0.00 25 1017.8
20260905142516 70 158 3.0 9.0 0.00 0.00 0.00 25 1017.7
20260905141516 71 135 2.0 9.0 0.00 0.00 0.00 23 1017.6